Hovedside
METAR-TAF:

METAR-TAF

Lufthavner :

Mehamn lufthavn

Gamvik, Norge

breddegrad: 71-02N, lengdegrad: 027-50E, høyde over havet: 1 m

Gjeldene værobservasjon

Denne rapporten ble laget for 3 timer og 46 minutter siden, klokken 21:50 UTC
Vind 11 kt fra Nord
Temperatur 1°C
Luftfuktighet 75%
Trykk 1015 hPa
Sikt 10 km eller mer
Få skyer i en høyde av 2500 ft
Brutte skyer i en høyde av 3000 ft

METAR: ENMH 102150Z 35011KT 9999 FEW025 BKN030 01/M03 Q1015

Tid: 02:36 (01:36 UTC)


TAF: fraværende

Værobservasjoner og værvarsel for over 4000 flyplasser (METAR- og TAF-rapporter).

Tilgjengelige stasjoner er representert av de røde og gule prikkene på kartet.

Hold musepekeren over prikken for å se navnet på stasjonen.

Klikk så for å se værobservasjoner og -varsler.

For å forandre kartet kan du klikke på den grønne knappen med svart kryss for å zoome inn, på den grønne knappen med strek for å zoome ut, eller på de grønne pilene for å se tilstøtende kart.


METAR-TAF: